TimeCST,TemperatureF,Dew PointF,Humidity,Sea Level PressureIn,VisibilityMPH,Wind Direction,Wind SpeedMPH,Gust SpeedMPH,PrecipitationIn,Events,Conditions,WindDirDegrees,DateUTC
12:15 AM,35.4,30.6,82,30.43,7.0,Calm,Calm,-,N/A,,Clear,0,2012-11-18 06:15:00
12:35 AM,35.1,30.9,85,30.42,7.0,Calm,Calm,-,N/A,,Clear,0,2012-11-18 06:35:00
12:55 AM,34.5,30.2,84,30.43,7.0,ENE,3.5,-,N/A,,Clear,60,2012-11-18 06:55:00
1:15 AM,34.0,30.7,88,30.43,5.0,ENE,3.5,-,N/A,,Clear,60,2012-11-18 07:15:00
1:35 AM,33.4,30.4,89,30.43,5.0,ENE,3.5,-,N/A,,Clear,60,2012-11-18 07:35:00
1:55 AM,32.9,29.5,87,30.43,5.0,Calm,Calm,-,N/A,,Clear,0,2012-11-18 07:55:00
2:15 AM,33.6,31.1,90,30.43,5.0,ENE,3.5,-,N/A,,Clear,70,2012-11-18 08:15:00
2:35 AM,34.0,30.9,89,30.42,5.0,East,5.8,-,N/A,,Clear,80,2012-11-18 08:35:00
2:55 AM,34.0,30.9,89,30.42,5.0,East,4.6,-,N/A,,Clear,90,2012-11-18 08:55:00
3:15 AM,32.2,29.7,90,30.41,5.0,East,4.6,-,N/A,,Clear,80,2012-11-18 09:15:00
3:35 AM,29.8,26.8,88,30.41,5.0,Calm,Calm,-,N/A,,Clear,0,2012-11-18 09:35:00
3:55 AM,32.5,32.0,98,30.41,5.0,ESE,3.5,-,N/A,,Clear,120,2012-11-18 09:55:00
4:15 AM,32.2,31.6,98,30.41,5.0,ESE,4.6,-,N/A,,Clear,120,2012-11-18 10:15:00
4:35 AM,33.6,33.1,98,30.41,5.0,ESE,4.6,-,N/A,,Clear,120,2012-11-18 10:35:00
4:55 AM,33.4,32.5,96,30.42,5.0,Calm,Calm,-,N/A,,Clear,0,2012-11-18 10:55:00
5:15 AM,34.3,33.8,98,30.41,5.0,ESE,3.5,-,N/A,,Clear,120,2012-11-18 11:15:00
5:35 AM,31.8,30.9,96,30.41,5.0,Calm,Calm,-,N/A,,Clear,0,2012-11-18 11:35:00
5:55 AM,32.7,32.7,100,30.41,4.0,Calm,Calm,-,N/A,,Clear,0,2012-11-18 11:55:00
6:15 AM,32.5,31.8,97,30.41,5.0,ESE,4.6,-,N/A,,Clear,120,2012-11-18 12:15:00
6:35 AM,30.7,30.4,99,30.41,4.0,SE,3.5,-,N/A,,Clear,130,2012-11-18 12:35:00
6:55 AM,32.2,32.2,100,30.42,2.5,Calm,Calm,-,N/A,,Clear,0,2012-11-18 12:55:00
7:15 AM,31.5,31.3,99,30.42,3.0,Calm,Calm,-,N/A,,Clear,0,2012-11-18 13:15:00
7:35 AM,30.2,30.2,100,30.42,2.5,Calm,Calm,-,N/A,,Clear,0,2012-11-18 13:35:00
7:55 AM,32.9,32.7,99,30.42,3.0,Calm,Calm,-,N/A,,Clear,0,2012-11-18 13:55:00
8:15 AM,36.3,34.7,94,30.42,4.0,Calm,Calm,-,N/A,,Clear,0,2012-11-18 14:15:00
8:35 AM,38.7,35.2,87,30.42,5.0,ESE,3.5,-,N/A,,Clear,120,2012-11-18 14:35:00
8:55 AM,39.7,34.2,80,30.42,5.0,SE,4.6,-,N/A,,Haze,140,2012-11-18 14:55:00
9:15 AM,41.7,34.7,76,30.42,7.0,SSE,3.5,-,N/A,,Clear,150,2012-11-18 15:15:00
9:35 AM,43.3,35.2,73,30.41,7.0,SSE,6.9,-,N/A,,Clear,150,2012-11-18 15:35:00
9:55 AM,45.3,35.8,69,30.41,10.0,SSE,6.9,-,N/A,,Clear,150,2012-11-18 15:55:00
10:15 AM,46.4,35.1,65,30.41,10.0,SSE,6.9,-,N/A,,Clear,160,2012-11-18 16:15:00
10:35 AM,49.3,34.5,57,30.41,10.0,SSE,6.9,-,N/A,,Clear,150,2012-11-18 16:35:00
10:55 AM,50.7,35.1,55,30.40,10.0,SE,6.9,-,N/A,,Clear,140,2012-11-18 16:55:00
11:15 AM,51.8,35.2,53,30.39,10.0,SE,5.8,-,N/A,,Clear,140,2012-11-18 17:15:00
11:35 AM,53.6,35.6,51,30.38,10.0,South,6.9,-,N/A,,Clear,190,2012-11-18 17:35:00
11:55 AM,53.1,34.9,50,30.37,10.0,SSE,4.6,-,N/A,,Clear,150,2012-11-18 17:55:00
12:15 PM,54.7,35.2,48,30.36,10.0,South,8.1,-,N/A,,Clear,180,2012-11-18 18:15:00
12:35 PM,55.2,35.4,47,30.36,10.0,SSE,5.8,-,N/A,,Clear,160,2012-11-18 18:35:00
12:55 PM,55.9,35.6,46,30.35,10.0,South,5.8,-,N/A,,Clear,170,2012-11-18 18:55:00
1:15 PM,56.1,35.2,45,30.35,10.0,SSE,8.1,-,N/A,,Clear,160,2012-11-18 19:15:00
1:35 PM,56.5,34.9,44,30.35,10.0,SSE,8.1,-,N/A,,Clear,160,2012-11-18 19:35:00
1:55 PM,57.0,35.1,44,30.34,10.0,SE,6.9,-,N/A,,Clear,140,2012-11-18 19:55:00
2:15 PM,56.7,34.9,44,30.34,10.0,SSE,9.2,-,N/A,,Clear,150,2012-11-18 20:15:00
2:35 PM,57.9,34.5,41,30.34,10.0,SE,6.9,-,N/A,,Clear,140,2012-11-18 20:35:00
2:55 PM,57.9,33.1,39,30.33,10.0,South,9.2,-,N/A,,Clear,170,2012-11-18 20:55:00
3:15 PM,57.7,32.9,39,30.33,10.0,SSE,8.1,-,N/A,,Clear,150,2012-11-18 21:15:00
3:35 PM,55.4,33.8,44,30.33,10.0,SSE,5.8,-,N/A,,Clear,150,2012-11-18 21:35:00
3:55 PM,53.6,34.2,48,30.33,10.0,SSE,6.9,-,N/A,,Clear,150,2012-11-18 21:55:00
4:15 PM,51.6,34.3,52,30.33,10.0,SE,5.8,-,N/A,,Clear,140,2012-11-18 22:15:00
4:35 PM,51.1,33.8,52,30.33,10.0,ESE,5.8,-,N/A,,Clear,120,2012-11-18 22:35:00
4:55 PM,50.9,33.1,51,30.33,10.0,ESE,6.9,-,N/A,,Clear,120,2012-11-18 22:55:00
5:15 PM,50.9,32.9,50,30.34,10.0,ESE,5.8,-,N/A,,Clear,120,2012-11-18 23:15:00
5:35 PM,50.4,32.9,51,30.34,10.0,ESE,5.8,-,N/A,,Clear,110,2012-11-18 23:35:00
5:55 PM,50.0,32.5,51,30.34,10.0,ESE,5.8,-,N/A,,Clear,120,2012-11-18 23:55:00
6:15 PM,49.3,33.1,54,30.34,10.0,ESE,4.6,-,N/A,,Clear,120,2012-11-19 00:15:00
6:35 PM,47.8,33.1,57,30.34,10.0,SE,6.9,-,N/A,,Clear,130,2012-11-19 00:35:00
6:55 PM,46.8,33.1,59,30.34,10.0,SE,8.1,-,N/A,,Clear,130,2012-11-19 00:55:00
7:15 PM,46.0,33.1,61,30.34,10.0,SE,6.9,-,N/A,,Clear,130,2012-11-19 01:15:00
7:35 PM,46.6,32.9,59,30.34,10.0,SE,5.8,-,N/A,,Clear,130,2012-11-19 01:35:00
7:55 PM,45.7,32.9,61,30.34,10.0,SE,6.9,-,N/A,,Clear,140,2012-11-19 01:55:00
8:15 PM,45.5,32.5,61,30.34,10.0,SE,4.6,-,N/A,,Clear,130,2012-11-19 02:15:00
8:35 PM,46.2,32.2,58,30.33,10.0,ESE,5.8,-,N/A,,Clear,120,2012-11-19 02:35:00
8:55 PM,47.1,32.2,56,30.34,10.0,ESE,3.5,-,N/A,,Clear,120,2012-11-19 02:55:00
9:15 PM,45.9,32.0,58,30.33,10.0,ESE,5.8,-,N/A,,Clear,120,2012-11-19 03:15:00
9:35 PM,43.7,32.0,63,30.33,10.0,ESE,5.8,-,N/A,,Clear,120,2012-11-19 03:35:00
9:55 PM,44.6,32.4,62,30.33,10.0,SE,4.6,-,N/A,,Clear,130,2012-11-19 03:55:00
10:15 PM,44.8,32.4,62,30.32,10.0,SE,4.6,-,N/A,,Clear,140,2012-11-19 04:15:00
10:35 PM,43.3,32.2,65,30.31,10.0,SE,5.8,-,N/A,,Clear,130,2012-11-19 04:35:00
10:55 PM,43.3,32.5,66,30.31,10.0,SE,4.6,-,N/A,,Clear,140,2012-11-19 04:55:00
11:15 PM,43.7,32.9,66,30.32,10.0,SSE,4.6,-,N/A,,Clear,150,2012-11-19 05:15:00
11:35 PM,41.7,32.9,71,30.31,10.0,SSE,5.8,-,N/A,,Clear,150,2012-11-19 05:35:00
11:55 PM,41.0,32.9,73,30.31,10.0,SSE,3.5,-,N/A,,Clear,160,2012-11-19 05:55:00